Вернуться в каталог

KINEIS-1C

АктивенСвязьSSO
NORAD 60081·PAYLOAD·🇫🇷 France

Запущен Jun 20, 2024 с Rocket Lab Launch Complex 1

Loading…

Ближайшие Пролёты (ближайшие 24 часа)

TLE

СвежийSource: Space-Track

Эпоха: Sep 14, 2026, 21:29 UTC

1 60081U 24114C   26257.89578985  .00000540  00000-0  77016-4 0  9992
2 60081  97.9827 281.5194 0000591 120.7116 239.4154 14.80743843120656

Отслеживайте KINEIS-1C в реальном времени с AllMySat

Download on the App Store